Tracking 30692 objects as of 17-Jun-2025
HD Live streaming from Space Station
objects crossing your sky now

FENGYUN 1C DEB

Track FENGYUN 1C DEB now!
10-day predictions


NORAD ID: 37418
Int'l Code: 1999-025EGL
Perigee: 845.9 km
Apogee: 2,578.8 km
Inclination: 98.6 °
Period: 120.5 minutes
Semi major axis: 8083 km
RCS: 0.0014 m2 (small)
Launch date: May 10, 1999
Source: People's Republic of China (PRC)
Launch site: Taiyaun Space Center, China (TSC)

Note: This is SATELLITE DEBRIS
Your satellite tracking list
Your tracking list is empty




NASA's NSSDC Master Catalog

Two Line Element Set (TLE):
1 37418U 99025EGL 25161.13306012 -.00000403  00000-0 -92897-3 0  9996
2 37418  98.6163 115.3185 1071866 326.8612  26.9476 11.94578809472682
Source of the keplerian elements: AFSPC